ECMWFFLT1_925_spd_234.txt.gz
Wind_Speed
5 5 5 4 4 4 5 5 5 4 3 3 3 4 4 4 5 6 6 5 4 5 5 5 5 5 4 4 5 5 5 5 4 5 7 7 7 8 9 10 9 7 6 4 4 6 4 3 7 12 15 17 17 16 14 14 14 15 16 16 15 15 14
4 8 7 5 6 6 6 7 6 4 3 2 3 5 5 5 5 6 6 5 6 6 6 7 7 7 7 7 7 7 7 7 7 7 7 7 7 9 10 12 11 9 8 7 7 8 6 4 3 4 9 14 14 15 16 15 15 16 17 18 18 18 17
6 11 8 8 9 8 8 9 8 5 3 3 4 6 7 5 5 6 6 6 8 8 9 9 10 10 10 10 9 9 9 9 9 9 9 9 9 8 9 10 11 9 8 6 7 8 7 6 5 4 7 9 9 12 16 16 16 18 18 19 19 19 20
8 11 10 10 11 10 9 10 8 5 3 3 4 5 6 4 4 5 6 7 8 9 10 10 10 10 11 11 10 10 10 10 11 11 11 11 11 11 10 10 10 8 7 6 6 7 7 6 6 5 7 11 11 11 14 14 15 16 17 18 18 18 19
6 9 11 12 11 11 11 10 9 6 4 4 4 5 5 4 3 4 4 4 6 8 9 8 8 8 8 9 9 9 10 10 10 10 11 11 11 12 12 11 10 9 9 9 8 9 9 11 11 7 7 11 10 9 13 16 15 14 14 15 16 16 17
4 8 12 11 11 11 11 11 9 6 5 5 5 5 5 3 3 3 3 4 5 7 7 6 6 7 7 7 8 8 9 9 9 9 9 9 10 11 10 10 10 9 9 8 9 10 10 13 16 10 8 11 9 7 10 13 14 13 13 13 14 14 15
5 9 11 10 11 11 11 10 8 5 4 5 5 4 3 3 2 2 4 5 6 7 6 5 6 6 5 6 7 8 9 8 7 8 8 9 9 9 9 9 10 10 10 8 8 8 8 11 16 14 11 10 9 8 7 9 12 12 11 11 12 13 14
7 10 10 10 10 11 10 8 6 5 3 5 6 3 2 3 2 3 5 6 6 7 6 5 6 5 4 6 7 8 8 8 6 6 8 9 10 9 9 9 10 10 10 9 7 6 6 9 14 19 18 10 6 7 6 7 11 11 11 11 11 12 13
9 11 11 10 10 10 10 8 7 5 2 6 7 2 2 4 3 4 5 5 7 7 5 5 7 6 5 7 7 6 7 6 6 6 7 8 9 10 11 11 11 11 10 9 8 6 5 7 10 18 21 15 9 5 3 5 6 8 10 11 10 11 12
11 13 10 10 10 10 10 9 7 4 1 5 6 3 3 5 4 4 5 7 8 7 5 6 7 6 5 6 7 6 6 6 7 8 8 7 8 9 11 11 11 10 9 9 10 8 7 9 10 13 18 19 17 9 3 2 2 4 8 10 9 9 11
11 12 9 10 11 11 12 9 7 4 0 2 4 3 4 6 5 5 7 8 7 5 6 6 6 5 5 6 8 8 8 8 10 11 10 9 9 9 11 11 10 10 10 10 10 10 10 10 10 10 13 19 19 14 9 5 3 4 9 11 11 10 11
12 11 10 11 12 12 12 9 7 4 1 1 3 4 6 7 7 8 8 8 7 6 7 6 5 5 6 8 9 10 9 9 11 13 12 11 10 10 11 11 11 11 11 11 10 10 10 9 8 8 9 15 17 17 19 13 4 4 10 13 13 13 13
13 12 11 13 14 13 11 9 8 5 2 2 5 6 7 7 8 9 8 8 8 8 8 6 5 5 7 9 9 10 10 9 11 13 12 11 10 11 12 12 12 13 13 12 12 10 9 7 6 6 8 14 17 19 23 20 10 7 12 14 15 14 14
14 14 12 13 15 13 11 9 8 6 3 3 5 7 7 7 8 9 8 8 8 8 7 7 7 7 9 9 10 10 10 9 11 12 12 11 11 11 12 13 13 13 13 12 12 12 11 8 7 8 11 17 20 22 24 25 17 11 15 17 16 14 13
15 15 13 14 14 13 11 9 7 6 4 3 6 7 7 7 7 8 9 9 9 8 8 8 8 8 8 9 9 10 9 9 10 10 11 11 11 11 11 12 14 13 13 14 14 13 13 12 11 14 17 20 22 23 24 25 21 15 15 17 17 15 12
16 16 15 14 13 11 11 8 6 6 5 6 7 6 7 7 7 7 9 9 8 7 8 9 9 9 8 8 8 8 7 8 8 8 9 10 10 11 11 12 13 13 14 15 15 14 15 15 16 18 20 21 22 22 22 24 23 19 17 17 18 18 15
16 17 16 15 12 11 10 8 6 5 5 7 8 6 7 8 6 7 9 9 8 7 7 9 9 9 8 8 7 6 4 4 4 6 8 9 9 10 10 11 11 12 13 15 15 15 15 17 18 19 20 20 20 20 20 21 22 21 20 18 17 18 18
17 17 16 14 12 11 10 8 8 6 5 8 8 7 8 7 6 9 11 10 8 8 7 8 8 9 9 8 7 5 3 3 5 7 8 9 9 9 10 10 10 10 12 14 15 15 16 17 18 19 20 20 20 20 20 20 20 21 21 20 17 18 18
18 18 16 14 12 11 11 10 9 7 7 8 9 9 7 6 8 13 12 9 8 9 9 8 8 8 9 8 6 6 6 9 11 11 11 11 10 10 10 10 10 9 10 13 14 15 16 17 18 19 20 20 20 21 21 20 19 19 20 19 17 17 18
19 18 16 15 12 11 11 10 9 8 8 9 10 9 7 7 12 14 11 9 8 9 10 10 9 8 9 7 6 8 11 15 16 17 16 15 13 12 11 11 10 9 10 12 13 14 16 17 19 20 21 21 20 20 21 20 18 18 18 17 16 16 16
20 18 17 16 14 13 12 11 10 9 9 10 10 8 8 11 14 13 11 10 9 10 11 11 10 9 9 8 7 11 15 17 19 20 20 19 18 16 15 13 12 12 12 12 13 14 15 17 19 21 22 21 20 20 20 18 17 17 16 15 14 14 14
20 19 18 16 15 14 13 12 12 11 10 11 11 9 10 13 13 12 11 10 10 10 11 11 10 10 10 9 9 13 16 17 19 21 22 22 21 20 19 18 16 14 14 13 13 14 14 15 17 19 20 19 18 19 18 17 16 16 16 15 14 14 14
21 20 19 18 16 14 14 14 14 13 12 11 12 12 13 13 11 11 10 9 10 11 11 11 11 11 10 10 11 14 16 17 19 20 21 22 21 21 20 19 18 16 15 14 14 13 14 14 15 15 15 14 14 14 15 16 16 15 16 16 14 14 15
22 22 21 19 17 16 15 15 15 15 14 12 13 15 15 13 11 10 9 9 9 10 12 13 11 11 12 10 11 14 16 17 18 18 19 20 19 19 18 18 17 16 15 15 15 14 14 13 13 13 13 11 10 9 10 12 14 14 15 17 16 15 16
24 24 23 21 20 18 17 17 17 16 15 14 14 16 16 14 13 12 10 9 9 12 14 14 12 12 13 12 11 13 14 14 14 14 15 17 17 16 15 16 16 16 15 15 16 16 15 15 14 13 13 13 12 12 10 10 11 13 15 18 18 16 15
26 25 25 23 21 20 19 20 19 17 17 16 14 14 16 16 15 14 11 9 10 14 16 15 13 13 13 13 12 12 12 11 10 10 12 14 14 13 13 13 14 15 15 14 15 16 16 17 16 16 16 17 17 16 16 15 14 13 14 17 19 17 15
28 27 26 24 23 22 21 21 20 17 18 19 16 14 16 17 16 14 12 8 10 16 17 16 15 14 14 14 13 13 12 11 10 9 10 13 13 11 11 11 12 14 14 14 14 15 17 18 18 19 19 20 21 20 19 19 18 17 16 16 17 17 14
29 28 27 25 25 23 22 22 21 18 18 20 19 16 16 17 16 14 12 9 11 17 18 16 16 16 14 14 14 14 14 13 12 11 11 12 12 10 9 9 10 12 13 13 13 13 15 16 18 20 22 22 23 22 21 21 20 20 19 19 18 17 15
31 30 29 27 27 25 24 24 22 20 19 21 21 19 17 17 17 15 12 10 13 18 19 17 17 16 15 14 14 15 16 15 14 12 12 12 11 10 9 7 8 11 11 11 11 10 10 12 15 18 20 20 20 20 20 19 18 18 18 19 19 18 16
32 31 30 30 29 27 27 26 24 22 21 22 23 21 19 19 18 17 14 12 14 18 21 19 17 17 17 16 15 16 16 16 15 13 13 12 11 11 9 7 8 11 10 9 9 8 8 9 12 15 17 17 16 16 16 15 15 14 14 15 15 16 16
33 32 32 32 31 29 28 28 27 24 24 24 24 23 21 20 19 18 15 13 14 17 21 21 19 19 19 18 17 16 16 15 14 13 13 13 12 10 8 7 10 12 11 9 8 8 8 7 9 11 13 14 13 12 11 11 10 10 10 10 11 13 14
34 33 33 33 32 32 31 30 29 27 26 25 25 24 23 21 21 20 17 15 13 16 20 22 22 20 20 19 17 16 16 15 15 14 13 13 12 10 7 8 11 13 11 9 8 8 8 7 6 8 10 12 13 11 9 8 8 7 7 8 8 10 12
36 35 35 35 34 33 32 32 31 29 28 27 25 24 24 23 22 21 19 17 15 15 18 23 24 22 21 20 18 17 17 16 16 15 14 13 12 11 9 10 12 13 12 10 8 8 8 7 8 7 7 10 12 10 8 6 5 4 5 7 9 10 12
37 37 36 35 35 34 34 33 33 31 30 28 26 26 26 24 23 23 21 20 17 15 17 21 24 24 22 21 19 19 19 18 16 15 15 13 13 13 12 11 12 13 14 12 10 9 8 7 7 7 7 8 9 8 6 5 4 5 7 10 11 11 11
34 35 36 35 35 35 34 34 34 33 31 30 28 27 27 26 25 24 23 22 20 17 16 19 23 26 25 23 21 20 20 20 17 15 14 14 13 13 14 12 12 13 14 13 12 10 9 8 7 8 9 8 6 5 5 6 7 9 11 12 12 12 10
35 34 35 36 36 36 35 35 34 33 32 31 30 29 28 27 26 25 24 24 23 21 18 18 21 25 26 25 23 20 20 20 20 18 16 14 12 12 14 14 13 13 13 13 12 10 9 9 8 9 10 8 7 7 7 7 9 12 12 12 12 11 8
35 34 35 36 36 36 36 36 35 34 33 32 31 30 29 29 28 27 26 26 26 24 21 19 20 23 26 27 25 22 19 19 21 21 19 15 12 11 12 13 13 13 14 13 11 9 8 8 8 9 10 10 9 9 7 7 9 11 12 12 11 8 6

ECMWFFLT1_925_spd_240.txt.gz
Wind_Speed
1 1 3 3 2 3 3 2 2 3 6 8 10 11 11 11 11 10 10 10 9 10 10 11 11 11 11 10 10 10 10 10 10 9 8 8 7 6 5 4 4 1 7 5 4 7 5 3 5 9 15 20 22 22 22 21 21 21 21 21 20 17 16
1 1 2 2 2 2 2 1 2 3 5 8 10 11 10 10 10 9 9 8 8 8 9 9 9 10 10 10 10 10 10 10 10 10 9 8 7 6 5 4 4 2 1 1 2 4 4 4 4 5 10 16 18 20 21 21 21 22 22 23 22 20 18
2 2 3 3 3 3 3 2 2 2 3 6 9 9 9 9 9 9 8 8 7 7 7 7 8 9 9 10 10 9 9 9 9 9 8 8 7 6 6 5 4 4 1 0 1 3 5 3 4 5 8 10 11 13 18 21 21 20 21 21 21 20 18
3 4 5 6 6 5 5 4 3 3 3 5 6 7 8 8 8 8 8 7 7 7 6 7 8 9 9 9 9 9 9 9 8 8 7 7 7 7 6 6 6 4 3 2 5 6 5 4 5 4 6 12 13 12 15 19 21 20 19 19 19 19 18
4 5 6 7 7 7 7 6 5 4 4 4 6 6 7 7 7 7 8 7 7 7 6 7 8 8 9 9 10 10 10 9 9 9 8 7 7 7 7 7 7 6 5 3 4 10 10 9 8 5 4 9 11 12 13 16 20 21 19 18 18 18 18
4 5 6 7 7 7 8 7 6 5 4 5 6 6 7 7 6 7 7 6 6 6 6 6 7 8 8 9 10 10 10 10 10 9 8 7 7 7 7 6 6 6 6 5 2 5 11 12 10 6 5 8 8 9 11 12 16 19 19 18 18 18 19
5 5 5 6 6 7 7 6 6 5 4 5 5 6 7 6 6 7 7 5 4 5 5 6 7 8 9 9 8 9 10 10 10 9 7 6 6 6 5 5 5 6 6 6 5 1 9 14 14 9 7 9 8 8 8 8 11 13 15 17 18 18 19
5 6 5 5 5 7 7 6 5 4 3 4 5 6 6 6 5 6 6 5 4 5 6 6 6 7 8 8 8 8 9 9 9 8 6 5 5 4 4 4 5 5 5 5 4 1 8 15 16 14 12 8 5 4 5 8 10 10 12 16 17 18 19
6 6 5 5 6 6 6 5 4 3 3 4 6 7 7 6 5 6 6 5 5 5 6 6 6 7 8 8 9 10 10 9 8 7 5 4 3 3 2 3 4 5 5 5 3 2 8 13 15 16 16 10 5 4 3 5 7 8 9 12 15 16 17
7 7 6 6 6 6 5 5 3 2 3 5 8 8 7 5 5 6 5 4 4 5 5 5 6 7 9 10 10 10 10 9 7 6 5 4 3 2 2 2 3 3 4 5 4 2 7 12 15 15 13 11 9 6 3 2 3 3 5 8 10 13 15
7 6 6 6 6 6 5 5 4 3 4 5 9 9 6 4 5 5 4 3 4 5 4 5 6 8 9 10 10 9 9 8 7 5 4 4 3 2 2 2 2 2 3 4 4 1 4 10 13 13 12 11 9 7 6 5 2 4 7 9 11 13 15
8 7 6 6 7 6 6 5 5 4 4 6 8 8 5 4 4 3 3 3 3 4 4 5 6 9 10 10 9 8 8 7 6 5 5 4 4 3 3 3 2 1 2 2 2 2 1 5 10 13 13 12 9 8 10 10 4 3 8 10 13 16 15
9 8 8 8 7 6 6 6 6 5 5 6 7 6 4 4 3 2 2 3 3 3 4 5 7 9 10 10 8 7 6 6 6 5 5 5 5 4 4 3 1 1 1 2 2 2 2 1 7 11 13 12 9 8 10 13 9 6 9 14 17 16 15
10 9 9 9 8 6 6 7 7 6 5 5 6 5 5 4 3 2 2 3 3 3 4 6 7 9 10 9 7 6 6 6 6 5 5 6 5 5 4 3 2 2 2 3 4 3 3 3 4 8 12 13 10 8 10 14 15 10 11 16 17 16 15
12 10 10 10 9 7 7 8 8 7 6 5 5 5 5 4 4 3 3 3 3 3 4 6 7 8 8 8 7 6 6 6 6 6 5 6 5 5 5 3 2 3 3 4 5 6 5 4 4 6 10 12 10 10 11 14 17 14 12 14 16 16 13
13 11 11 11 10 9 8 9 9 7 6 5 5 5 5 4 3 3 3 3 3 3 5 6 7 7 7 6 6 7 7 7 7 6 5 5 4 5 5 4 3 3 4 5 7 7 6 3 2 5 9 11 11 12 12 12 15 16 15 14 14 14 12
15 13 12 12 11 9 10 10 9 8 7 5 5 5 5 4 3 3 2 3 3 4 5 5 6 6 6 6 7 9 10 10 9 7 5 3 3 3 4 4 4 4 4 6 7 7 5 1 3 7 10 12 13 13 12 11 13 16 19 16 13 13 12
16 14 14 13 11 10 11 11 10 8 7 6 5 5 5 5 3 2 3 3 4 4 4 5 6 6 6 7 8 10 12 11 9 6 3 2 1 2 4 4 4 4 4 4 5 5 3 3 7 9 12 12 12 11 11 10 11 16 20 19 15 13 12
18 16 15 14 12 11 12 12 11 9 7 6 5 5 6 6 5 4 4 5 5 4 3 4 5 6 6 7 10 11 11 8 5 2 2 1 0 1 3 3 4 4 3 3 4 4 3 5 8 10 11 11 10 10 9 10 11 15 19 19 16 14 13
19 17 16 15 13 13 14 13 12 9 8 7 6 6 6 7 6 5 6 7 6 4 3 4 5 5 6 8 10 9 7 5 3 2 2 2 1 1 2 2 3 4 3 2 3 4 4 5 7 8 8 8 8 9 9 11 12 15 17 18 16 15 14
21 19 17 16 15 15 15 14 12 10 9 8 7 6 6 7 6 5 6 7 7 5 3 4 4 4 5 7 8 6 4 4 3 4 4 3 3 2 2 2 3 4 3 2 3 4 4 5 5 6 7 7 7 8 10 11 13 14 16 17 16 15 14
22 20 18 18 18 17 17 15 14 12 10 9 8 7 6 7 6 6 7 8 8 6 4 4 3 3 4 6 6 4 2 3 4 5 5 5 5 4 4 4 5 4 4 4 3 3 4 4 4 5 7 7 7 7 9 11 12 13 15 16 15 14 14
24 22 20 20 20 19 18 17 15 14 12 11 10 8 7 7 7 6 7 8 9 7 5 5 4 2 2 4 4 2 1 4 5 5 6 6 7 7 7 7 7 7 6 5 5 4 4 5 4 5 6 6 4 4 6 9 11 12 13 15 15 15 15
25 23 22 22 21 20 20 19 18 16 14 13 12 10 9 9 9 8 8 9 9 7 6 6 5 4 2 1 2 1 2 4 5 6 6 7 8 8 8 8 8 7 7 6 6 6 6 6 6 6 6 5 3 2 2 5 8 10 12 13 14 15 15
26 25 24 24 23 22 22 21 20 18 17 16 14 13 12 11 11 10 9 9 9 7 6 7 7 6 5 3 1 2 4 4 4 5 5 6 8 8 8 8 8 7 7 6 5 5 6 6 6 6 5 4 3 2 3 3 4 7 9 12 14 13 13
27 27 26 25 24 24 24 24 22 21 19 18 17 15 13 13 13 12 12 11 10 8 7 7 8 8 7 6 4 4 5 5 3 3 4 6 7 8 8 8 8 8 8 6 5 4 4 4 4 4 4 4 3 3 3 3 3 3 5 9 13 13 12
28 29 28 27 26 27 27 26 24 22 21 20 20 18 16 15 15 14 14 13 12 10 9 8 8 9 10 9 7 6 6 6 4 2 3 5 6 7 7 7 7 9 9 8 6 4 4 4 4 4 4 5 5 4 4 4 4 4 4 6 11 12 11
29 30 30 29 28 29 29 28 26 24 23 22 22 20 18 17 17 16 16 15 14 12 11 9 9 10 12 11 10 9 8 7 5 4 4 4 5 6 6 6 7 9 9 9 8 6 5 5 6 7 8 9 9 9 9 9 8 8 8 8 9 10 10
30 31 31 30 30 30 31 30 28 27 25 24 23 21 20 19 18 17 18 17 16 15 13 11 10 12 14 14 14 13 11 9 7 5 5 5 5 6 6 5 5 7 9 9 8 6 5 5 6 9 12 13 13 13 13 13 11 10 9 8 8 8 8
30 31 31 31 32 33 33 33 31 29 27 26 25 24 22 20 18 18 19 19 18 17 15 12 11 12 15 17 17 16 14 12 9 7 6 6 5 5 5 4 4 5 6 8 8 6 5 5 7 11 13 14 15 15 15 14 13 11 10 8 6 6 7
31 32 32 34 35 35 34 33 32 30 29 28 27 26 23 20 19 19 20 20 19 18 17 14 12 13 17 19 19 19 17 15 12 10 9 8 7 6 6 6 5 4 4 6 7 7 6 5 6 10 12 14 14 14 13 13 11 11 10 9 7 5 5
31 32 33 36 35 32 30 30 28 27 28 27 26 25 23 21 20 20 21 20 20 19 18 16 14 14 17 20 21 21 20 18 16 14 12 11 10 9 8 9 8 6 5 5 6 6 6 5 5 7 10 11 12 11 10 10 9 8 8 8 7 6 6
31 32 34 36 32 29 31 31 28 27 29 29 27 26 24 23 22 21 21 21 21 21 19 17 15 16 18 21 22 23 23 22 20 17 15 14 13 12 11 11 11 10 8 7 6 6 6 5 4 5 7 8 8 9 8 7 7 6 6 7 7 7 7
31 32 33 34 30 29 32 33 30 30 31 30 29 28 26 25 23 22 22 23 23 22 21 18 17 16 19 21 23 24 25 25 22 20 18 16 15 15 14 13 13 13 12 11 9 8 8 7 5 5 5 5 5 6 6 5 5 5 4 5 7 8 8
29 30 31 32 31 30 31 31 32 32 32 31 31 30 28 27 26 24 24 24 25 24 23 21 18 17 19 22 24 24 25 25 23 21 19 18 17 17 16 14 13 14 14 13 12 11 10 10 8 7 6 6 6 5 4 4 4 5 5 5 7 10 11
28 29 30 31 32 32 31 30 31 32 32 31 29 28 28 28 27 26 26 26 27 26 25 23 21 19 20 22 24 25 24 24 23 23 21 19 17 17 16 15 14 14 14 14 13 12 12 12 11 9 9 9 9 6 5 5 6 6 6 6 7 10 12
27 29 30 30 31 31 30 30 30 31 32 31 28 27 27 27 27 27 28 28 29 28 27 26 24 22 21 22 24 25 25 24 24 23 21 19 16 15 15 15 15 15 15 16 15 13 13 13 12 11 11 12 12 8 6 6 7 8 8 8 8 11 12

ECMWFFLT1_925_spd_246.txt.gz
Wind_Speed
3 4 4 4 3 3 4 4 4 5 6 8 8 8 8 8 7 6 6 6 5 6 6 6 7 8 8 9 9 9 8 7 7 6 5 5 4 3 2 2 2 2 2 3 3 2 3 5 6 9 10 11 13 12 11 11 11 11 11 11 11 11 12
3 4 4 4 3 3 3 2 3 4 5 7 7 8 8 7 7 6 5 5 6 6 6 6 6 7 8 9 9 9 9 8 7 7 6 6 6 5 3 3 3 2 2 2 2 3 2 7 5 6 9 10 11 12 11 11 11 11 11 10 10 10 10
4 4 4 4 3 2 2 1 2 3 4 5 6 6 7 7 6 6 5 5 6 6 6 6 6 7 7 8 9 9 9 8 7 7 7 6 6 6 5 4 4 3 2 2 1 3 3 8 8 6 8 8 9 11 10 10 12 12 11 11 11 11 11
5 5 5 4 4 3 2 1 1 2 3 4 5 5 5 6 5 6 5 5 5 5 5 6 6 6 7 7 8 9 9 9 8 7 7 7 6 6 6 5 4 4 3 3 2 4 2 7 10 7 8 9 11 11 9 10 12 12 13 13 13 13 13
5 5 5 4 4 4 2 1 1 1 2 3 3 4 4 4 4 4 4 4 4 4 4 4 5 6 6 6 7 8 9 8 9 8 7 7 6 5 5 5 4 4 3 4 4 4 3 7 10 9 10 11 11 11 9 10 11 12 13 13 13 13 13
5 4 4 4 4 3 2 2 1 1 1 2 2 3 3 3 2 3 3 3 4 4 4 4 4 5 5 5 6 7 7 7 7 7 6 6 5 5 5 5 5 4 4 5 4 3 3 7 9 9 10 11 12 11 9 9 10 11 12 11 11 12 12
5 5 4 4 4 3 3 3 1 1 1 1 2 3 3 2 2 2 2 3 3 3 3 4 4 4 5 5 5 6 6 6 5 5 4 5 5 5 5 4 5 5 5 5 4 3 2 5 8 12 11 9 12 11 8 7 8 9 10 10 10 11 11
4 4 4 4 4 4 3 3 2 1 1 1 2 2 2 2 2 2 2 3 3 2 2 2 2 3 4 4 4 4 4 4 4 4 3 3 4 4 5 5 4 5 6 5 4 3 1 2 6 15 16 9 8 9 7 7 7 9 9 9 9 9 10
5 4 4 4 4 4 4 3 3 2 1 1 1 2 1 2 2 2 2 2 2 2 2 2 2 3 4 3 3 3 4 4 4 4 3 3 3 3 4 4 4 4 6 5 4 2 0 1 2 9 13 10 6 6 6 5 6 8 8 8 8 9 9
6 5 4 4 5 5 4 4 4 3 2 1 1 1 1 2 2 2 2 2 2 2 2 2 2 3 3 3 2 3 4 4 4 4 4 3 2 2 2 3 3 4 5 5 4 3 0 1 1 3 5 8 8 7 6 5 5 7 6 6 7 8 8
6 5 4 4 5 5 5 5 4 4 3 2 1 0 1 2 2 2 2 1 1 1 1 1 2 3 3 3 2 3 3 3 3 4 4 4 3 3 2 2 2 3 4 4 4 4 1 1 2 2 2 6 9 8 8 7 6 7 7 6 7 8 8
7 6 5 4 5 6 6 6 5 4 4 3 2 1 2 3 3 3 2 1 1 1 1 1 2 3 3 3 2 2 3 3 3 4 4 4 4 3 3 3 3 3 3 3 4 4 2 1 2 3 3 4 5 5 8 9 7 7 8 8 8 8 8
7 6 5 5 5 5 6 6 5 5 5 4 3 2 3 4 4 4 3 2 1 1 1 1 3 3 2 2 2 2 2 2 3 3 4 4 4 3 3 3 3 3 3 3 3 3 2 1 3 4 4 5 5 4 6 8 9 9 9 9 10 9 8
8 6 6 5 5 5 6 6 6 6 6 5 4 4 4 5 5 5 4 3 2 2 1 1 3 2 1 1 1 2 2 2 2 2 2 3 4 4 3 3 4 4 4 4 3 3 2 0 2 4 4 5 5 4 5 8 10 11 10 9 9 9 9
8 7 7 7 7 7 8 7 7 8 7 7 6 5 5 6 6 6 5 4 3 2 1 1 2 2 1 1 1 2 2 2 1 1 1 2 3 3 3 3 3 3 3 4 4 3 2 1 1 3 4 4 4 5 6 8 10 11 11 10 9 9 8
12 11 10 10 10 10 10 10 10 10 9 8 7 6 6 7 7 7 6 5 4 3 2 1 2 1 1 1 1 2 2 1 1 1 1 2 3 3 3 3 3 3 3 3 4 3 2 1 0 2 3 3 4 6 7 7 7 9 11 11 9 9 8
19 17 15 15 15 14 13 12 12 12 11 9 8 7 7 7 8 8 7 6 5 4 3 2 1 1 1 1 1 1 1 1 1 1 2 3 3 3 3 3 3 3 3 3 3 4 3 2 2 4 5 5 6 7 7 6 6 7 9 10 10 8 8
21 18 19 20 19 16 14 13 14 13 12 11 9 8 8 8 9 9 8 7 6 5 4 3 1 1 2 2 2 2 2 2 3 3 3 3 3 3 3 3 3 3 3 3 4 4 5 4 5 5 6 7 8 7 6 5 6 7 8 9 9 9 8
21 20 21 22 21 17 15 15 15 14 13 12 10 10 9 9 10 9 9 8 7 6 5 3 2 2 2 2 3 3 4 4 4 4 4 4 4 3 3 3 3 3 4 4 5 5 5 5 6 6 6 7 8 7 6 5 6 7 8 9 9 9 8
22 21 21 22 21 18 16 16 16 15 14 13 12 11 10 10 10 9 9 8 7 7 6 4 3 2 2 3 3 4 5 5 5 4 4 4 4 4 4 4 4 4 4 4 5 5 5 5 6 7 7 6 7 6 6 6 6 7 8 9 9 9 8
19 20 21 20 17 15 16 16 16 16 14 13 13 11 11 10 10 10 9 9 8 7 6 5 3 3 3 3 4 5 5 5 5 5 4 4 4 5 5 4 4 4 4 5 5 5 5 5 5 6 6 5 6 5 5 5 6 7 8 8 8 8 8
16 17 18 17 14 13 15 16 16 16 15 14 13 11 11 10 10 10 10 10 9 8 7 6 4 4 3 4 5 5 5 5 5 5 5 5 5 5 5 5 5 5 6 6 7 7 7 7 5 5 5 4 4 4 4 5 6 6 7 7 7 8 7
16 15 17 19 18 16 16 17 17 17 16 15 13 12 11 10 11 11 11 11 10 9 7 7 5 5 5 5 5 6 6 6 5 5 5 5 6 6 6 6 6 6 6 6 7 7 7 7 7 7 7 5 4 3 3 4 5 5 6 6 6 7 7
15 16 19 22 21 18 18 19 19 18 17 16 14 13 12 11 11 11 11 11 11 9 8 8 6 5 5 6 7 6 6 7 6 5 5 5 6 7 7 6 6 7 6 6 6 6 6 6 7 7 7 6 4 3 2 2 3 4 4 5 5 6 6
13 15 18 20 20 19 20 20 20 19 19 17 16 14 13 12 11 11 11 12 11 10 10 9 8 7 6 6 8 7 6 7 6 5 5 5 5 6 6 6 6 6 6 7 7 6 6 6 6 5 5 4 4 3 2 2 2 2 2 3 5 5 5
11 13 16 18 19 20 21 21 20 20 19 18 17 16 14 13 12 12 12 12 12 11 11 11 9 9 8 7 8 8 6 6 6 5 5 5 5 5 5 5 6 5 6 7 6 5 5 4 4 3 2 1 2 3 4 5 5 3 2 2 4 5 4
12 13 14 16 18 19 20 20 20 19 18 18 18 17 16 15 14 13 13 13 12 11 11 12 11 10 10 9 9 8 6 6 6 6 5 5 5 5 5 5 5 6 6 6 5 5 5 4 3 3 3 3 2 2 2 2 3 4 3 1 2 4 4
14 14 14 14 16 18 19 20 19 18 18 18 18 17 16 15 15 14 14 14 13 12 13 14 13 12 11 11 10 8 6 6 7 6 6 5 5 4 4 4 5 6 6 6 7 8 6 5 5 5 5 6 6 5 5 6 5 5 4 2 2 4 5
12 13 14 14 16 17 18 19 20 19 18 17 17 16 16 16 16 15 15 15 14 13 14 15 15 13 13 13 13 10 8 7 7 7 7 6 5 5 5 5 5 6 6 6 8 10 10 7 6 6 7 7 7 7 6 7 7 7 6 6 6 6 7
10 11 10 10 12 14 16 18 19 18 17 17 17 17 17 17 17 16 16 17 16 14 15 17 17 15 15 16 15 12 10 9 8 7 8 7 6 5 5 6 6 5 6 7 9 10 11 9 7 6 7 7 7 8 7 7 6 6 6 6 6 7 7
10 9 7 8 11 14 15 15 14 15 16 18 19 19 18 17 16 16 17 17 17 16 15 18 20 18 17 18 17 14 11 10 9 9 9 8 7 6 6 8 8 6 5 8 10 11 12 10 7 6 7 7 7 8 7 6 6 6 5 5 5 5 6
10 7 7 11 15 15 12 11 13 18 21 22 20 19 18 16 16 16 16 17 19 18 15 17 21 21 19 19 19 16 13 12 11 10 10 9 8 7 7 8 9 8 7 8 9 11 13 10 7 6 7 7 7 7 7 6 5 5 5 5 5 5 5
13 10 7 12 16 14 10 12 17 22 24 23 20 18 17 17 16 16 16 16 19 20 17 17 21 23 21 21 21 18 14 13 13 12 11 11 10 9 9 9 9 9 9 8 9 11 12 11 8 6 5 5 6 7 7 6 6 6 5 5 5 5 5
13 13 10 11 13 13 13 16 17 19 20 20 19 17 17 17 17 18 18 18 19 20 20 18 20 23 23 22 22 21 17 14 14 14 12 11 11 10 10 10 10 10 9 9 10 10 11 12 10 6 4 5 7 8 7 6 6 7 6 5 6 6 6
13 13 12 11 11 10 13 16 16 17 17 17 17 17 17 17 18 18 18 18 19 20 21 21 21 23 24 24 24 23 20 15 14 14 13 12 12 11 11 11 11 10 10 11 11 10 10 11 9 5 4 7 8 9 7 5 5 5 4 5 6 6 6
13 12 12 12 12 10 10 13 15 17 18 18 17 18 19 19 19 18 17 17 18 19 20 23 25 25 24 25 25 25 22 18 16 15 13 12 12 11 10 11 12 11 10 12 12 11 10 10 7 5 6 8 8 8 6 4 3 4 4 4 5 5 6
14 13 13 12 12 12 11 10 13 18 18 15 14 15 18 19 19 19 17 16 17 18 19 21 25 27 26 25 26 26 24 22 20 18 13 11 12 11 11 12 12 11 11 11 12 12 11 9 7 6 7 7 6 6 4 3 4 4 4 5 5 5 5

ECMWFFLT1_925_spd_252.txt.gz
Wind_Speed
8 7 7 6 5 5 4 3 3 1 1 1 3 3 3 4 3 3 4 3 5 7 6 4 5 7 8 9 10 11 13 13 14 14 14 15 14 13 12 11 9 7 7 4 5 5 3 2 4 8 10 10 9 9 10 10 10 10 11 13 15 15 14
7 8 9 8 7 6 5 4 2 1 0 0 1 1 3 4 3 3 4 3 3 5 5 6 5 5 6 8 9 10 11 13 13 13 13 14 14 13 13 12 12 9 8 5 4 6 4 3 3 4 6 9 9 10 11 10 10 10 12 14 15 15 13
8 9 10 9 8 7 7 5 4 3 2 1 1 1 2 3 3 3 3 3 3 1 3 6 6 6 7 7 9 10 10 11 12 12 11 12 12 12 12 13 13 9 6 4 5 6 5 4 4 4 6 7 6 8 10 10 10 10 12 15 15 15 14
10 10 10 10 9 9 8 7 5 4 4 3 2 2 1 2 2 2 2 3 3 2 3 6 5 6 7 7 7 8 9 10 11 11 10 11 12 12 12 13 12 10 7 4 4 5 4 5 5 3 5 9 9 8 8 9 10 11 11 13 13 14 13
11 11 11 11 11 10 9 8 7 6 6 5 3 3 1 1 1 0 1 2 3 1 2 5 5 4 6 8 8 8 8 8 9 10 9 10 11 11 12 12 11 10 9 6 5 6 7 7 8 5 6 9 8 8 9 9 11 11 11 11 12 13 13
12 12 12 11 11 10 9 9 9 7 7 6 5 4 3 2 2 1 1 1 2 2 1 3 4 4 5 6 7 7 7 7 7 8 8 8 8 10 10 10 10 10 9 7 6 7 8 11 13 8 7 9 8 7 8 10 11 11 12 12 12 13 14
14 13 12 12 12 11 10 10 10 9 8 7 6 6 5 3 3 2 1 1 1 2 1 2 3 4 4 3 6 7 6 7 8 7 7 7 6 7 8 9 9 9 8 7 6 7 7 12 14 10 8 8 8 8 8 8 11 10 11 12 12 13 13
15 14 13 13 12 12 12 11 11 10 9 8 8 7 6 5 4 3 2 1 1 1 1 1 2 4 4 3 6 7 5 6 7 7 8 7 6 5 5 6 7 7 8 8 7 6 4 7 13 15 12 7 5 5 5 7 11 10 11 12 11 11 12
15 15 15 14 14 14 13 12 12 12 10 10 9 7 6 6 5 4 3 2 2 1 1 1 2 3 2 2 4 5 5 5 6 7 7 7 6 6 5 5 6 7 6 7 6 5 4 6 12 15 13 9 5 3 3 5 7 7 9 11 11 10 11
17 16 16 16 15 15 14 14 13 13 12 11 10 8 8 7 6 5 4 3 3 3 2 2 2 1 1 3 3 4 4 4 5 5 4 6 8 7 7 7 6 6 5 6 5 5 5 8 12 12 11 8 5 3 3 3 4 5 7 10 11 11 10
18 18 17 16 16 16 15 14 14 14 13 12 10 9 9 8 8 6 6 5 4 4 3 3 2 2 2 4 3 3 2 3 5 4 2 6 7 6 8 7 5 5 4 4 4 5 6 7 10 11 9 7 6 3 2 2 4 6 7 8 10 9 7
19 19 18 18 17 17 17 16 15 14 13 12 11 10 10 10 9 7 6 6 5 5 4 3 3 1 2 3 2 3 2 1 5 4 2 4 5 5 6 4 3 4 4 3 3 3 4 5 7 9 7 6 5 3 3 5 5 4 7 9 9 7 7
21 20 20 19 19 19 17 16 16 14 13 13 12 11 10 10 10 8 7 7 6 5 5 3 2 1 2 2 3 4 2 0 4 3 1 2 2 4 6 3 1 2 4 5 3 1 2 4 6 6 6 5 5 4 6 9 7 4 8 10 9 8 9
21 20 21 21 19 19 18 17 16 15 14 13 12 12 10 10 10 9 8 7 7 6 5 4 3 2 3 2 3 3 1 1 3 3 1 1 1 2 4 4 3 2 3 5 3 2 2 5 5 5 6 5 7 7 9 11 10 8 8 10 10 10 9
20 21 24 22 20 18 17 17 16 15 15 14 13 11 10 10 9 9 8 7 7 6 4 5 4 2 2 2 3 3 2 2 3 2 1 1 1 0 2 3 4 3 2 3 4 5 2 4 5 7 8 6 7 9 11 13 13 11 9 11 11 9 6
21 22 26 24 19 18 17 16 15 15 15 14 13 11 10 9 9 9 8 7 7 5 5 5 4 2 3 3 2 3 3 2 2 1 1 1 1 1 0 1 3 3 2 3 3 3 3 2 3 8 8 6 8 11 13 14 14 13 12 12 12 9 7
22 23 24 25 20 17 17 16 15 14 14 13 13 12 10 9 9 9 9 8 7 7 6 5 4 3 4 4 2 2 2 2 2 2 1 0 1 2 1 1 2 2 2 3 3 1 1 3 3 7 10 8 10 14 15 14 13 14 15 13 11 12 10
19 21 22 23 23 19 16 15 15 14 14 13 12 12 11 10 10 9 9 8 8 7 7 6 5 4 4 4 3 3 3 2 3 2 1 1 2 2 1 2 2 3 3 3 3 3 1 4 2 6 11 11 11 13 16 16 13 13 15 13 11 12 12
16 18 19 19 20 21 19 16 15 14 13 13 13 12 12 11 10 10 9 8 8 8 7 7 6 5 4 4 3 3 4 3 3 3 3 2 2 2 2 2 2 2 2 4 4 3 2 4 3 2 7 10 11 9 13 17 14 12 15 14 11 12 12
14 15 15 14 15 16 20 18 13 13 13 13 13 13 12 11 10 10 9 8 7 8 8 7 6 5 4 4 4 4 4 4 4 4 4 4 3 3 3 3 3 2 1 3 5 3 1 3 5 5 4 6 8 7 7 10 9 9 12 13 13 11 10
12 13 12 12 11 11 17 19 13 13 16 15 14 13 12 11 10 9 9 8 7 7 8 8 6 5 5 5 5 4 4 4 4 4 4 4 4 4 4 4 3 2 2 1 2 3 3 2 4 6 7 7 7 7 6 6 6 6 7 11 13 9 9
12 12 11 10 9 7 11 16 16 16 19 18 16 13 12 11 10 10 8 8 8 8 8 8 7 6 6 5 5 4 4 4 4 4 5 4 5 5 4 3 2 2 3 3 1 1 2 3 4 5 6 6 6 5 4 6 6 6 6 9 12 11 11
15 13 12 9 8 7 7 11 13 16 19 19 15 14 12 10 10 10 9 9 9 9 9 9 10 10 8 6 5 4 5 5 4 5 5 5 5 4 2 2 3 4 4 3 3 2 1 2 5 6 5 5 5 4 4 4 3 6 8 9 12 14 11
19 17 15 11 10 10 8 9 10 13 15 18 16 12 11 10 10 10 10 10 10 10 10 11 11 11 11 9 7 5 5 5 5 5 5 5 6 5 4 3 5 6 4 4 4 3 2 1 2 4 3 3 4 3 3 3 3 3 4 5 9 13 10
22 21 20 17 14 13 11 9 8 10 10 11 14 12 9 10 10 10 11 11 11 12 12 13 12 12 12 11 9 7 6 5 6 5 6 6 6 7 7 6 6 6 4 4 4 2 2 1 0 1 1 1 1 1 2 3 6 8 7 5 6 9 6
22 23 24 21 17 15 13 10 7 9 9 9 11 11 11 12 12 11 12 12 12 13 15 15 14 13 12 11 12 11 7 5 7 6 6 6 7 8 8 7 7 6 5 6 4 2 2 1 1 2 2 3 3 3 2 1 4 6 8 8 4 5 2
20 21 23 23 20 17 15 11 8 8 9 10 13 14 15 15 14 13 14 14 14 15 17 17 15 14 13 11 12 14 9 5 7 7 6 6 7 7 8 7 8 7 6 7 6 4 2 1 0 1 1 1 3 5 6 5 2 3 4 6 6 7 6
19 20 21 21 20 18 15 12 9 8 9 11 14 16 18 19 16 15 15 16 16 16 17 18 16 15 14 11 12 16 11 6 7 8 6 7 7 7 7 7 8 8 7 8 8 7 6 4 4 5 5 3 3 4 6 7 5 4 3 3 6 8 8
22 22 21 18 17 17 16 14 12 9 8 11 13 16 19 20 19 18 17 17 18 17 17 18 18 16 15 11 13 17 12 7 8 8 7 8 8 8 8 7 8 9 9 10 10 9 9 7 6 6 5 2 2 2 3 6 6 6 5 3 4 6 8
25 25 24 19 15 16 18 17 16 14 11 11 13 15 19 21 21 21 20 19 20 19 19 19 19 17 16 13 14 18 14 8 9 10 9 9 9 8 9 8 8 10 10 10 10 11 11 9 7 6 6 4 2 1 2 4 6 7 7 6 4 5 6
24 26 26 22 17 15 16 17 18 19 17 15 15 16 19 22 23 22 20 21 22 21 19 20 20 19 17 15 16 19 16 10 11 12 10 10 10 9 10 10 9 11 11 9 10 13 13 11 9 7 7 7 5 3 3 3 4 6 6 7 7 6 6
21 23 23 22 19 16 16 16 17 20 20 19 19 19 19 20 22 21 19 19 20 21 20 20 21 21 19 16 18 20 17 12 13 13 12 11 11 10 12 12 12 11 10 8 9 14 15 12 10 9 7 8 8 5 3 4 4 4 4 4 5 6 7
21 20 20 20 20 18 17 16 15 18 20 19 18 21 21 19 19 21 21 19 17 17 20 21 21 22 21 19 19 21 20 15 14 15 14 12 12 12 12 13 14 12 9 8 10 15 16 13 11 11 9 8 9 9 6 5 4 4 4 5 4 4 5
21 20 19 20 19 17 17 18 17 16 17 16 16 19 22 20 20 22 23 23 20 17 19 21 22 22 22 22 21 22 23 17 13 15 16 14 13 14 13 13 15 15 11 9 12 16 16 13 11 11 9 9 12 11 7 7 7 5 5 6 6 6 6
24 20 19 20 21 19 17 18 19 15 13 13 14 16 18 19 21 23 24 23 22 20 19 20 22 23 24 24 23 23 25 21 14 13 16 16 15 16 16 14 14 16 14 11 13 17 16 12 12 11 9 11 14 11 7 7 8 7 7 7 8 7 7
26 23 19 19 23 23 19 17 16 12 11 12 13 13 14 14 17 20 22 21 22 23 22 21 23 26 26 26 25 24 26 25 19 12 12 15 14 15 18 17 13 14 15 13 14 18 17 14 13 12 10 11 12 10 8 8 7 7 8 9 9 8 8
25 24 21 20 22 24 22 17 12 10 11 13 12 11 13 13 13 14 16 18 20 22 23 22 22 25 27 27 27 26 26 26 23 16 11 11 11 11 17 20 16 13 14 15 16 18 18 15 14 13 12 11 11 10 9 8 7 6 6 7 8 7 7

ECMWFFLT1_925_spd_258.txt.gz
Wind_Speed
11 12 10 9 9 8 7 6 6 6 4 4 4 5 4 4 5 5 4 3 3 4 4 5 6 6 6 6 6 9 9 6 7 8 8 7 5 5 4 3 2 8 14 9 9 9 4 1 2 5 8 11 15 17 14 12 11 11 10 10 10 9 9
11 11 9 9 9 9 9 8 7 7 6 6 5 5 6 6 6 5 3 2 2 3 4 4 4 5 6 5 5 7 8 6 6 7 6 7 5 5 3 2 4 8 9 6 10 10 5 4 2 2 6 9 12 14 14 13 12 11 10 10 10 9 8
12 11 9 10 11 11 12 11 9 9 8 8 7 7 7 7 6 5 3 3 2 2 2 2 2 4 4 5 5 6 7 7 6 5 6 5 4 4 2 1 3 6 5 4 9 8 5 4 3 4 7 8 8 10 13 14 13 11 11 11 11 11 9
12 12 13 13 14 13 13 12 11 11 11 10 9 8 8 7 5 4 4 4 3 3 1 1 2 3 3 3 4 5 5 7 5 3 4 4 3 2 2 1 3 5 4 5 10 11 8 5 5 4 6 10 12 11 13 14 14 13 12 12 12 13 12
12 13 14 14 14 13 13 13 12 13 13 12 11 10 8 7 5 3 4 5 4 3 2 1 1 2 2 2 2 3 3 5 4 1 2 4 3 1 2 1 1 5 6 6 10 14 12 11 12 7 8 13 11 10 15 16 14 14 13 13 13 13 14
13 13 13 12 12 11 11 12 13 15 15 14 12 11 9 7 6 4 3 4 4 4 3 2 3 2 1 1 2 1 1 2 3 2 1 2 2 1 1 1 1 3 4 5 7 11 12 15 17 10 10 13 10 11 14 14 14 13 13 13 12 13 14
16 16 15 14 12 12 12 12 13 15 16 16 14 11 10 8 7 6 4 4 4 5 4 3 4 2 2 1 2 2 1 1 2 2 2 2 2 2 2 2 2 3 3 4 5 8 12 16 20 15 10 10 12 14 10 10 13 10 9 12 11 11 12
19 19 18 18 16 16 16 16 15 15 15 17 15 12 10 9 8 8 6 4 5 6 5 4 4 3 3 1 2 3 1 1 1 2 2 2 1 3 3 2 2 3 3 2 4 6 12 18 22 22 17 10 8 9 7 7 9 7 11 13 10 10 11
22 22 21 20 18 18 19 18 18 17 14 13 12 10 11 11 9 9 8 6 6 7 6 6 5 4 4 3 3 3 2 2 1 1 1 1 1 3 4 3 2 2 2 2 2 4 11 19 22 24 24 18 10 5 4 5 4 5 14 15 10 10 10
21 22 21 20 19 20 20 20 19 18 14 11 10 11 13 13 11 11 9 8 8 8 7 7 5 4 4 4 5 4 3 3 2 2 2 1 1 3 4 3 3 2 1 2 2 4 10 18 22 22 23 22 18 10 4 4 4 6 13 14 11 11 10
18 19 18 18 19 19 19 19 19 17 15 14 14 15 15 14 13 12 10 9 9 9 9 8 7 6 4 5 6 5 5 4 2 2 3 2 2 4 4 4 4 2 1 2 2 4 9 16 20 21 20 19 20 17 10 5 5 10 17 15 11 13 14
17 17 16 18 19 19 18 18 18 16 16 15 15 15 14 14 12 11 11 11 10 10 10 9 9 8 6 5 5 5 6 5 2 1 3 2 3 4 3 5 6 2 0 1 1 3 8 15 18 19 19 15 15 17 17 12 5 10 20 18 13 15 16
17 17 18 19 20 19 18 18 18 18 17 16 16 16 16 16 12 10 11 12 12 12 12 12 12 11 7 5 4 4 6 6 3 1 3 4 3 2 2 5 6 3 1 2 2 3 8 14 17 17 17 14 12 14 19 17 7 8 18 18 16 17 16
17 17 18 18 18 18 17 18 18 18 17 17 17 17 18 18 15 11 10 12 13 14 14 14 14 12 8 5 4 5 5 6 6 3 3 4 3 1 2 5 5 2 2 2 1 4 8 13 16 17 16 14 12 14 19 18 12 10 12 15 18 20 18
17 16 17 17 18 18 17 17 17 16 17 18 18 19 20 20 16 11 11 12 13 16 17 16 14 12 9 6 6 7 6 6 7 7 5 5 5 3 3 6 5 2 3 3 2 4 7 11 15 16 16 14 12 15 19 18 16 14 11 15 21 22 20
19 17 17 17 18 17 16 16 15 15 16 18 18 19 19 20 16 13 12 13 14 16 18 17 15 13 10 7 7 9 8 6 5 6 6 4 5 6 5 6 5 3 4 4 3 3 7 11 14 15 15 15 13 15 19 19 17 16 16 18 22 24 22
23 21 20 18 17 17 15 14 14 16 17 18 18 18 18 18 17 14 14 15 16 17 17 17 16 14 11 8 7 8 9 7 4 5 6 4 4 6 7 6 5 4 4 2 1 2 5 9 13 15 15 14 14 15 19 19 17 19 20 20 22 24 24
26 25 23 21 19 17 16 14 14 15 16 17 18 18 17 17 17 17 17 17 17 17 16 16 17 15 13 10 8 8 9 8 5 5 6 5 5 6 7 6 6 5 4 1 2 3 2 5 10 15 15 13 15 17 19 19 17 18 22 24 23 23 23
27 26 25 23 21 19 17 16 15 14 14 16 18 19 19 18 18 19 19 17 16 17 16 16 18 17 14 11 8 8 10 9 7 7 6 6 7 7 6 6 6 6 5 3 1 2 1 2 8 15 16 14 16 19 19 19 18 17 21 24 23 22 23
26 26 26 25 24 22 19 17 16 15 14 15 17 19 20 20 19 20 21 20 18 17 17 17 19 18 15 13 10 8 9 10 9 8 8 8 8 8 7 6 6 6 6 4 1 1 1 2 5 13 17 15 17 19 19 19 19 18 20 22 20 20 23
24 24 24 24 25 25 23 20 17 16 15 15 17 20 21 21 20 20 21 21 20 19 18 18 20 20 17 14 12 9 8 10 10 9 9 9 9 8 7 6 6 6 5 4 2 1 2 1 2 11 17 17 18 19 20 20 19 19 21 21 18 18 20
23 23 23 23 24 25 25 23 20 18 16 15 15 17 19 20 21 20 20 21 22 21 20 19 20 21 20 16 14 11 8 9 11 10 9 9 9 9 8 7 6 6 5 5 3 1 3 3 3 6 13 17 18 20 20 19 19 20 21 20 17 16 18
25 25 24 23 24 25 26 25 23 20 18 17 15 15 15 17 18 20 22 22 22 21 21 21 21 22 22 18 15 13 10 10 12 11 11 11 10 9 8 7 6 6 6 5 4 3 3 4 4 6 7 10 16 20 20 19 20 20 21 21 20 18 18
27 27 25 25 25 26 26 26 25 23 22 20 18 16 14 15 15 17 18 19 20 21 21 20 21 23 22 19 16 14 12 11 12 13 13 13 12 10 9 7 5 6 6 5 5 4 4 4 4 6 7 7 9 14 15 17 20 21 22 22 21 21 21
29 29 28 28 27 27 27 26 25 25 24 22 20 19 17 15 15 15 15 14 16 19 19 19 21 24 22 19 17 15 13 12 14 14 15 15 14 12 10 7 5 6 6 5 5 5 5 5 5 5 6 7 8 9 9 11 15 19 22 22 21 22 22
30 31 32 32 30 29 29 29 27 25 25 24 22 21 21 18 16 15 13 12 13 17 17 16 20 25 22 19 18 16 14 14 15 15 16 16 14 12 11 9 7 7 7 6 5 5 5 5 5 5 5 6 6 7 7 7 9 12 16 18 20 22 22
31 32 34 35 34 32 31 31 30 27 25 25 24 23 22 21 18 15 14 13 13 14 14 13 18 24 23 20 19 17 15 15 15 16 16 16 14 14 13 11 8 7 8 8 7 5 5 5 6 6 5 5 5 5 5 5 5 6 7 9 13 18 20
32 34 34 35 35 34 32 31 31 29 26 25 25 24 23 21 19 17 16 14 15 15 14 13 15 21 24 21 19 18 16 15 16 17 17 16 15 15 15 13 10 8 7 8 8 6 6 6 6 6 6 5 5 5 4 4 4 4 4 5 7 12 15
32 33 34 35 36 35 33 33 33 33 29 25 24 23 22 21 19 18 17 15 15 15 14 14 15 19 23 23 20 19 18 16 17 18 18 17 16 16 16 14 11 9 8 8 10 8 7 7 7 6 6 5 5 6 6 6 6 6 6 6 7 9 11
31 32 33 35 35 35 34 34 36 36 30 24 22 22 22 21 17 16 16 16 15 14 13 13 14 17 21 24 22 20 19 18 18 18 18 17 15 16 17 14 12 11 9 9 10 10 9 8 8 7 5 4 4 6 9 10 10 10 10 10 10 11 12
31 32 33 33 34 35 35 35 37 37 31 25 22 22 21 20 17 14 15 16 16 16 15 13 13 15 19 23 24 22 20 19 20 20 18 16 15 16 16 14 13 13 11 10 10 11 10 9 9 8 6 4 4 7 10 13 13 13 13 14 14 15 15
31 30 32 33 33 34 35 35 37 36 32 28 26 24 23 23 21 18 16 16 16 16 17 16 14 14 16 20 24 24 22 21 21 21 19 17 17 16 15 14 14 13 12 10 11 12 12 11 11 10 7 5 4 6 10 13 14 14 15 15 15 15 15
31 30 30 33 33 33 33 34 36 36 33 31 30 29 30 29 26 24 21 17 16 16 16 16 15 14 15 20 24 25 24 24 23 23 22 20 19 18 16 14 14 13 12 11 11 12 12 13 12 11 8 5 4 6 9 11 12 13 13 14 15 15 14
31 30 31 32 32 32 32 32 33 34 35 35 33 33 34 33 30 28 26 21 20 19 16 15 17 18 17 19 24 26 26 26 25 24 24 23 22 20 18 16 16 14 13 13 12 11 12 14 14 12 9 6 4 5 8 9 10 10 12 14 14 14 14
30 31 31 32 32 32 32 32 31 32 35 37 36 35 36 36 34 32 30 27 26 26 22 18 19 22 22 18 19 26 27 26 25 25 25 25 23 21 19 17 17 15 14 14 14 12 11 14 15 13 10 8 5 5 7 9 10 9 9 11 13 14 14
31 31 31 32 33 33 33 32 31 31 33 35 36 36 37 37 36 35 34 33 33 32 26 20 19 21 24 22 16 20 26 26 22 21 23 25 24 22 20 18 17 16 15 15 15 12 11 15 16 13 11 10 9 7 8 9 9 9 8 9 10 11 12
31 31 31 32 32 31 32 33 32 32 33 33 34 35 36 36 35 33 33 35 36 36 31 24 20 20 21 23 20 15 21 25 21 17 18 21 23 23 21 18 17 17 15 15 15 13 12 15 17 15 12 11 11 10 10 10 10 9 9 9 9 9 10